www.pogodaiklimat.ru

Погода и климат >> Архив погоды >> Россия >> Краснодарский край >> Кореновск


ПОГОДА в Кореновске

  • Прогноз погоды в Кореновске
  • Монитор погоды в Кореновске

АРХИВ ПОГОДЫ в Кореновске

Время (UTC), дата Ветер
(напр.,м/с)
 
Видим.   Явления Облачность Т
(С)
Тd
(С)
f
(%)
Тe
(С)
Тes
(С)
Комфортность P
(гПа)
Po
(гПа)
Тmin
(С)
Tmax
(С)
R
(мм)
R24
(мм)
S
(см)
03 12.02 В 3 10 км ясно +1.9 +0.3 89 -2 -2 1018.1 1012.1 +1.9
06 12.02 В 4 10 км 10/0
[Ac trans Ci fib]
+3.0 +0.8 85 -2 -1 1017.8 1011.8 +1.6
09 12.02 ЮВ 4 10 км 10/0
[Ac trans Ci sp]
+7.8 +2.1 67 +5 +7 1017.1 1011.2
12 12.02 ЮВ 3 10 км 10/0
[Ac trans Ci sp]
+11.8 +2.5 53 +10 +12 1015.8 1010.0
15 12.02 В 3 10 км 10/0
[Ac trans Ci sp]
+9.7 +2.3 60 +8 +8 1015.9 1010.0 +11.9
18 12.02 В 3 10 км 8/0
[Ci sp]
+7.0 +1.3 67 +4 +4 1016.9 1011.0
21 12.02 ЮВ 3 10 км 8/0
[Ci sp]
+3.6 +0.3 79 -0 -0 1017.4 1011.4
00 13.02 ЮВ 2 10 км ясно +1.6 -0.6 85 -2 -2 1017.7 1011.6
03 13.02 ЮВ 3 10 км 6/3 1500 м
[Sc Ci fib]
+0.9 -1.1 86 -4 -4 1018.5 1012.4 +0.9
06 13.02 ЮВ 3 10 км 8/0
[Ci fib]
+3.1 -0.4 78 -1 +1 1020.0 1014.0 +0.9
09 13.02 СЗ 4 10 км 8/0
[Ci fib]
+10.8 +3.2 59 +9 +12 1021.2 1015.3
12 13.02 СЗ 3 10 км 10/5 1000 м
[Sc Ci fib]
+9.9 +3.6 65 +8 +9 1021.5 1015.6
15 13.02 СЗ 3 10 км 8/4 1000 м
[Sc Ac trans Ci fib]
+6.9 +1.9 70 +4 +4 1022.7 1016.8 +11.0
18 13.02 СЗ 3 10 км 10/8 1000 м
[Sc Ac und]
+3.7 -0.2 76 0 0 1024.5 1018.5
21 13.02 СЗ 3 10 км 10/10 1000 м
[Sc]
+2.7 -0.7 78 -1 -1 1025.1 1019.1
00 14.02 З 1 10 км 10/10 1000 м
[Sc]
+1.5 -1.2 82 -0 -0 1025.4 1019.3
03 14.02 С 2 10 км 9/9 1000 м
[Sc]
+1.0 -1.1 86 -2 -2 1025.5 1019.4 +1.0
06 14.02 СВ 2 10 км слаб. ливневой снег 10/10 600 м
[Cb cap]
+1.4 -1.5 81 -2 -2 1026.3 1020.2 +0.8
09 14.02 СВ 4 10 км 10/8 300 м
[St Ac As]
+3.3 -2.2 67 -1 -1 1025.9 1019.9
12 14.02 СВ 3 10 км 10/8 300 м
[Cb cap Ac und]
+4.5 -2.7 60 +1 +2 1024.2 1018.2
15 14.02 СВ 3 10 км 10/5 1000 м
[Sc Ac As]
+4.2 -3.5 57 +1 +1 1023.9 1017.8 +4.7 0.0
18 14.02 СВ 5 10 км 8/8 1000 м
[Sc]
+3.0 -5.7 53 -2 -2 1024.2 1018.2
21 14.02 В 4
{10}
10 км 10/10 1500 м
[Sc]
+1.1 -6.2 58 -4 -4 1023.9 1017.8
00 15.02 СВ 5 10 км 8/8 1000 м
[Sc]
-0.8 -7.3 61 -7 -7 1024.2 1018.1
03 15.02 СВ 5
{10}
10 км 9/9 600 м
[Cb cap]
-0.9 -6.2 67 -7 -7 1024.3 1018.2 -0.9
06 15.02 СВ 4
{10}
10 км 10/10 1000 м
[Sc]
-1.1 -5.4 73 -7 -7 1025.8 1019.6 -1.1
09 15.02 В 4 10 км {метель} 9/4 1000 м
[Sc Ac trans]
+2.2 -3.6 65 -2 -1 1024.9 1018.8
12 15.02 СВ 4 10 км 6/3 1500 м
[Sc Ac trans]
+5.9 -2.7 54 +3 +4 1023.7 1017.7
15 15.02 СВ 3
{10}
10 км 6/4 1500 м
[Sc diur, vesp Ac trans Ci fib]
+3.6 -4.9 54 0 0 1023.9 1017.9 +6.0
18 15.02 СВ 3 10 км ясно -0.4 -6.8 62 -5 -5 1024.1 1018.0
21 15.02 С 2 10 км 1/0
[Ci fib]
-2.7 -8.1 66 -6 -6 1023.1 1016.9
00 16.02 С 1 10 км 3/0
[Ci fib]
-5.3 -8.8 76 -8 -8 1022.6 1016.4
03 16.02 СЗ 1 10 км 1/0
[Ci fib]
-5.4 -8.8 77 -8 -8 1022.5 1016.3 -5.9
06 16.02 ЮЗ 1 10 км 10/0
[Ac trans Cc]
-3.2 -7.2 74 -5 -4 1022.8 1016.7
09 16.02 З 4 10 км 10/10 1000 м
[Sc]
+1.0 -3.7 71 -4 -4 1022.9 1016.8
12 16.02 З 4 10 км 10/10 600 м
[Cb cap]
+1.9 -2.3 74 -3 -3 1021.5 1015.4
15 16.02 З 3 10 км 10/10 1000 м
[Sc]
+2.0 -1.2 79 -2 -2 1021.5 1015.5 +2.1
18 16.02 З 4 10 км {ливн. осадки} 10/10 600 м
[Cb cap]
+1.9 -0.5 84 -3 -3 1022.0 1015.9
21 16.02 З 3 10 км слаб. ливневой дождь 10/10 600 м
[Cb cap]
+2.0 0.0 87 -2 -2 1022.1 1016.0
00 17.02 З 3 10 км слаб. ливневой дождь 10/10 600 м
[Cb cap]
+2.0 +0.4 89 -2 -2 1021.5 1015.4
03 17.02 З 3 10 км слаб. ливневой дождь 10/10 600 м
[Cb cap]
+2.2 +0.9 91 -2 -2 1021.2 1015.1 +1.7 0.1
06 17.02 З 4 10 км слаб. ливневой дождь 10/10 600 м
[Cb cap]
+2.6 +1.3 91 -2 -2 1021.5 1015.5
09 17.02 З 6-13
{14}
10 км слаб. ливневой дождь 10/10 600 м
[Cb cap]
+3.6 +1.9 89 -2 -2 1020.7 1014.7
12 17.02 ЮЗ 6-10
{13}
10 км {ливн. осадки} 10/10 600 м
[Cb cap]
+6.7 +3.4 79 +2 +2 1017.9 1012.0
15 17.02 ЮЗ 6-10
{14}
10 км 3/1 600 м
[Cb cap Ac trans]
+7.7 +1.2 63 +4 +4 1016.0 1010.1 +8.6 0.5
18 17.02 ЮЗ 5-10
{13}
10 км 5/0
[Ci fib]
+5.9 +2.2 77 +2 +2 1015.1 1009.2
21 17.02 З 7-14
{14}
10 км 9/9 1000 м
[Sc]
+7.3 +2.3 71 +3 +3 1014.5 1008.6
00 18.02 ЮЗ 6-11
{19}
10 км 9/9 1000 м
[Sc]
+7.3 +2.8 73 +3 +3 1013.2 1007.3
03 18.02 З 6-11
{14}
10 км 10/10 1000 м
[Sc]
+6.2 +1.7 73 +2 +2 1012.8 1006.9 +5.8
06 18.02 З 5
{12}
10 км 9/9 1500 м
[Sc]
+4.7 +0.6 75 0 0 1014.5 1008.6 +4.6
09 18.02 З 6-11
{12}
10 км 8/6 300 м
[Cb cap Ci fib]
+6.5 -1.7 56 +2 +3 1015.3 1009.4
12 18.02 СЗ 5-11
{12}
10 км 6/3 600 м
[Cb cap Ci fib]
+6.9 -6.0 39 +4 +5 1015.4 1009.5
15 18.02 СЗ 4
{11}
10 км 9/6 1500 м
[Sc Ac trans Ci fib]
+4.6 -6.6 44 +1 +1 1017.0 1011.1 +7.3
18 18.02 СЗ 2 10 км 1/0
[Ci fib]
+0.8 -5.3 64 -2 -2 1019.5 1013.5
21 18.02 С 2 10 км ясно -2.5 -7.1 71 -6 -6 1021.4 1015.3
00 19.02 С 2 10 км ясно -4.4 -8.4 74 -8 -8 1022.8 1016.6

 

Местоположение метеостанции Кореновск (Краснодарский край, Россия): широта 45.47 долгота 39.48 высота над уровнем моря 48 м.

В архиве по умолчанию представлена погода в Кореновске за последнюю неделю. Архивные данные за месяц целиком и за предыдущие месяцы, начиная с января 2011 года, Вы можете получить, выбрав интересующий диапазон дат из раскрывающегося списка и нажав кнопку "Ввод!".


*Определитесь, кто Вы:
робот инопланетянин человек

Внимание! Время в таблицах - всемирное. Для получения местного времени необходимо прибавить поправку, которая равна 3 ч.

Смотрите также архив погоды в соседних городах и на ближайших метеорологических станциях:

Погода в Усть-Лабинске (Краснодарский край, Россия) (33 км)
Погода в Тимашевске (Краснодарский край, Россия) (46 км)
Погода в Краснодаре (Краснодарский край, Россия) (59 км)
Погода в Тихорецке (Краснодарский край, Россия) (63 км)
Погода в Каневской (Краснодарский край, Россия) (78 км)
Погода в Сосыке (Краснодарский край, Россия) (78 км)
Погода в Кропоткине (Краснодарский край, Россия) (85 км)
Погода в Белореченске (Краснодарский край, Россия) (87 км)
Погода в Дондуковской (Адыгея, Россия) (96 км)
Погода в Горячем Ключе (Краснодарский край, Россия) (98 км)

Пояснения к столбцам:

Ветер - указаны скорость ветра в м/с - средняя за 10 мин, порывы в срок и между сроками (в фигурных скобках) и направление, откуда дует ветер: С - северный, СВ - северо-восточный, В - восточный, ЮВ - юго-восточный, Ю - южный, ЮЗ - юго-западный, З - западный, СЗ - северо-западный.
Видимость - горизонтальная дальность видимости в метрах или километрах. При видимости от 1 до 10 км при отсутствии осадков обычно наблюдается дымка, при ухудшении видимости до 1 км и менее - туман. В сухую погоду видимость может ухудшаться дымом, пылью или мглою.
Явления - указаны атмосферные явления, наблюдавшиеся в срок или в последний час перед сроком; фигурными скобками обозначены явления, наблюдавшиеся между сроками (за 1-3 часа до срока); квадратными скобками обозначены град или гололедные отложения с указанием их диаметра в мм.
Облачность - указаны через наклонную черту общая и нижняя облачность в баллах и высота нижней границы облаков в метрах; квадратными скобками обозначены формы облаков: Ci - перистые, Cs - перисто-слоистые, Cc - перисто-кучевые, Ac - высококучевые, As - высокослоистые, Sc - слоисто-кучевые, Ns - слоисто-дождевые, Cu - кучевые, Cb - кучево-дождевые. Подробнее классификацию облаков см. в Атласе облаков (PDF).
T - Температура воздуха - температура, измеренная на высоте 2 м над землей.
Td - Температура точки росы - температура, при понижении до которой содержащийся в воздухе водяной пар достигнет насыщения.
f - Относительная влажность воздуха - влажноcть воздуха, измеренная на высоте 2 м над землей.
Te - Эффективная температура - температура, которую ощущает одетый по сезону человек в тени. Характеристика душности погоды. При расчете учитывается влияние влажности воздуха и скорости ветра на теплоощущения человека.
Tes - Эффективная температура на солнце - температура, которую ощущает человек, с поправкой на солнечный нагрев. Характеристика знойности погоды. Зависит от высоты солнца над горизонтом, облачности и скорости ветра. Ночью, в пасмурную погоду, а также при ветре 12 м/с и более поправка равна нулю.
P - Атмосферное давление - приведенное к уровню моря атмосферное давление.
Po - Атмосферное давление - измеренное на уровне метеостанции атмосферное давление.
Tmin - Минимальная температура - минимум температуры воздуха на высоте 2 м над землей.
Tmax - Максимальная температура - максимум температуры воздуха на высоте 2 м над землей.
R - Количество осадков - Количество выпавших осадков за период времени, мм. При наведении курсора мыши на число - период времени, за который выпало указанное количество осадков.
R24 - Количество осадков - Количество выпавших осадков за 24 часа, мм.
S - Снежный покров - Высота снежного покрова, см. При наведении курсора мыши на число - состояние снежного покрова и степень покрытия местности в баллах.